[[{"header":{"parameterUnit":"m.s-1","parameterCategory":1,"la1":30.2991,"la2":30.254,"lo1":-89.0895,"lo2":-89.0444,"dy":0.0017,"dx":0.0017,"nx":28,"ny":28,"refTime":"2023-09-22T09:00:00:Z","depth":0,"parameterNumber":2,"parameterNumberName":"U-component_of_WINDS"},"data":[0,0,0,0,0,0,0,0,0,0,0,0,0,0,0,0,0,0,0,0,0,0,0,0,0,0,0,0,0,0,0,0,0,0,0,0,0,0,0,0,0,0,0,0,0,0,0,0,0,0,0,0,0,0,0,0,0,0,0.6341,0.6341,0,0.6413,0.6414,0.6415,0.6445,0.6445,0.6445,0.6445,0.6519,0.6521,0.6523,0,0,0,0,0,0,0,0,0,0,0,0,0,0.6227,0.6229,0.634,0.6341,0.6342,0.6413,0.6414,0.6415,0.6445,0.6445,0.6445,0.6445,0.6518,0.6521,0.6523,0,0,0,0,0,0,0,0,0,0,0,0,0,0.6285,0.6229,0.634,0.6366,0.6369,0.6413,0.6414,0.6415,0.6445,0.6445,0.6445,0.6445,0.6517,0.652,0.6523,0.6547,0,0,0.6533,0.6534,0,0,0,0,0,0,0,0,0.6282,0.6289,0.6361,0.6364,0.6368,0.642,0.6401,0.6459,0.6445,0.6416,0.6445,0.6445,0.6486,0.6492,0.6506,0.655,0.6554,0.6533,0.6535,0.6537,0.6538,0,0,0,0,0,0,0,0.6278,0.6287,0.6369,0.6362,0.6366,0.6373,0.6381,0.6412,0.6451,0.6419,0.6421,0.6429,0.6488,0.6503,0.6508,0.6555,0.6533,0.6536,0.6538,0.6539,0.6621,0.6621,0,0,0,0,0,0,0.627,0.6283,0.6367,0.6371,0.6323,0.6376,0.6385,0.6403,0.6451,0.6458,0.6429,0.6431,0.6497,0.6504,0.651,0.6541,0.6537,0.654,0.6541,0.6621,0.6621,0.6621,0,0,0,0,0,0,0.6267,0.6277,0.6364,0.6328,0.6339,0.6378,0.6399,0.6405,0.642,0.6459,0.6466,0.6438,0.6498,0.6506,0.6537,0.6544,0.6541,0.6544,0.662,0.6621,0.6621,0.6601,0,0,0,0,0,0,0.6264,0.6276,0.6286,0.6328,0.6341,0.639,0.6399,0.6406,0.6425,0.6427,0.6469,0.6475,0.6498,0.6533,0.6541,0.6548,0.6546,0.662,0.6621,0.6621,0.6601,0.6601,0.66,0,0,0,0,0,0.626,0.6277,0.6286,0.6296,0.6354,0.639,0.6398,0.6424,0.6426,0.6435,0.646,0.6474,0.6541,0.6536,0.6545,0.6553,0.662,0.662,0.6621,0.6602,0.6601,0.66,0,0,0,0,0,0,0.6235,0.6283,0.6294,0.6326,0.6354,0.6395,0.6409,0.6422,0.645,0.6451,0.6482,0.6491,0.6519,0.6539,0.6532,0.6578,0.6582,0.6584,0.6564,0.6563,0.6563,0.6557,0.6549,0,0,0,0,0,0.6233,0.6259,0.63,0.6324,0.6337,0.637,0.6387,0.6404,0.6435,0.6447,0.6474,0.6503,0.653,0.6548,0.6576,0.6604,0.6613,0.6614,0.6614,0.6613,0.6615,0.6631,0.6631,0.6624,0.6624,0.6623,0,0,0.623,0.626,0.6274,0.632,0.6343,0.6369,0.638,0.6407,0.6426,0.6451,0.6482,0.6503,0.6537,0.6567,0.6581,0.6584,0.6619,0.6614,0.6613,0.6615,0.6631,0.6632,0.6633,0.6624,0.6624,0.6624,0,0,0.6237,0.6262,0.6285,0.6308,0.6344,0.6366,0.6371,0.641,0.6425,0.6457,0.6476,0.6498,0.6545,0.6569,0.6586,0.66,0.6614,0.6608,0.6606,0.6621,0.6621,0.6622,0.6626,0.6628,0.661,0.661,0.661,0,0.6229,0.6268,0.6295,0.632,0.6339,0.6362,0.6385,0.6406,0.6449,0.6461,0.6464,0.6522,0.6547,0.6582,0.6585,0.6599,0.6606,0.6604,0.6619,0.662,0.6621,0.6626,0.6627,0.6609,0.6609,0.6609,0.6609,0,0.6255,0.6282,0.6296,0.6336,0.6357,0.638,0.641,0.6427,0.6442,0.6463,0.6495,0.6525,0.6558,0.6568,0.6583,0.6605,0.6605,0.6613,0.6618,0.662,0.6625,0.6627,0.6608,0.6608,0.6608,0.6609,0,0,0.625,0.6304,0.6308,0.6326,0.6367,0.6388,0.6412,0.6445,0.6459,0.6487,0.6507,0.6546,0.6553,0.6573,0.6591,0.6604,0.6612,0.661,0.6611,0.6609,0.6637,0.6631,0.6633,0.6621,0.6621,0.6622,0.6634,0,0.6262,0.6307,0.6331,0.6365,0.6389,0.6411,0.6432,0.6459,0.6479,0.6502,0.6524,0.6551,0.6558,0.657,0.6584,0.6608,0.6618,0.6608,0.664,0.6641,0.6631,0.6636,0.663,0.664,0.6636,0.6637,0.6637,0,0.6283,0.631,0.6347,0.6383,0.6394,0.6413,0.6444,0.6466,0.6496,0.651,0.6531,0.6549,0.6574,0.6576,0.6612,0.6604,0.6619,0.6632,0.6633,0.6637,0.6639,0.664,0.6644,0.6646,0.664,0.664,0.664,0,0.6275,0.6321,0.6348,0.6363,0.6406,0.6419,0.6437,0.6467,0.6485,0.6512,0.6524,0.6553,0.657,0.6592,0.6616,0.6616,0.6649,0.6654,0.6661,0.666,0.6667,0.6667,0.6674,0.6676,0.6676,0.6676,0.6676,0,0.6286,0.6307,0.6345,0.6362,0.6386,0.6413,0.6436,0.6456,0.6483,0.6503,0.6524,0.6543,0.6574,0.6597,0.6616,0.6642,0.665,0.6661,0.6666,0.6659,0.6658,0.6669,0.6669,0.6677,0.6677,0.6677,0.6677,0,0.6281,0.6307,0.6339,0.6377,0.6387,0.6403,0.6435,0.6452,0.6472,0.6498,0.6506,0.6538,0.6566,0.6593,0.663,0.6643,0.6669,0.6675,0.6658,0.6661,0.6667,0.6666,0.6682,0.6686,0.6685,0.6685,0.6685,0,0.6286,0.6303,0.6343,0.6358,0.6376,0.6401,0.6418,0.6445,0.6463,0.6498,0.651,0.6539,0.6564,0.6607,0.6634,0.6662,0.667,0.6673,0.6674,0.6666,0.6669,0.6668,0.667,0.6673,0.6673,0.6672,0.6672,0,0.6293,0.6305,0.633,0.6359,0.638,0.6404,0.6429,0.6441,0.6472,0.6491,0.6519,0.6538,0.6576,0.6604,0.6635,0.6654,0.6668,0.6672,0.6675,0.6668,0.6658,0.6663,0.6657,0.6671,0.6672,0.6672,0.6672,0.6672,0.6293,0.6309,0.6339,0.6366,0.6387,0.641,0.6427,0.645,0.6474,0.6506,0.652,0.6549,0.6578,0.6621,0.6639,0.6662,0.6665,0.667,0.6671,0.6672,0.667,0.6654,0.6668,0.6668,0.6668,0.6668,0.6668,0,0.63,0.632,0.6345,0.6379,0.64,0.6411,0.6439,0.6456,0.6481,0.6506,0.653,0.6562,0.6589,0.6618,0.6647,0.6659,0.6666,0.6666,0.6665,0.6669,0.6666,0.666,0.666,0.666,0.666,0.666,0.666,0.666,0.6307,0.6333,0.6348,0.6386,0.6406,0.6434,0.6449,0.6469,0.649,0.6525,0.6548,0.6566,0.6592,0.6623,0.6649,0.6656,0.6666,0.6664,0.6673,0.6669,0.667,0.667,0.6665,0.6665,0.6665,0.6675,0.6675,0.6675]},{"header":{"parameterUnit":"m.s-1","parameterCategory":1,"la1":30.2991,"la2":30.254,"lo1":-89.0895,"lo2":-89.0444,"dy":0.0017,"dx":0.0017,"nx":28,"ny":28,"refTime":"2023-09-22T09:00:00:Z","depth":0,"parameterNumber":3,"parameterNumberName":"V-component_of_WINDS"},"data":[0,0,0,0,0,0,0,0,0,0,0,0,0,0,0,0,0,0,0,0,0,0,0,0,0,0,0,0,0,0,0,0,0,0,0,0,0,0,0,0,0,0,0,0,0,0,0,0,0,0,0,0,0,0,0,0,0,0,2.4987,2.4986,0,2.4901,2.49,2.4899,2.4806,2.4805,2.4803,2.4802,2.4711,2.471,2.4709,0,0,0,0,0,0,0,0,0,0,0,0,0,2.507,2.5069,2.4987,2.4986,2.4985,2.4901,2.49,2.4898,2.4806,2.4805,2.4803,2.4802,2.4712,2.471,2.4709,0,0,0,0,0,0,0,0,0,0,0,0,0,2.5014,2.5069,2.4987,2.4929,2.4923,2.4901,2.4899,2.4898,2.4807,2.4805,2.4803,2.4801,2.4712,2.471,2.4709,2.4737,0,0,2.4703,2.4702,0,0,0,0,0,0,0,0,2.5017,2.5011,2.4939,2.4933,2.4926,2.4862,2.4895,2.4844,2.4807,2.4851,2.4802,2.48,2.4763,2.4757,2.4745,2.4732,2.4728,2.4703,2.4702,2.4701,2.4701,0,0,0,0,0,0,0,2.5021,2.5014,2.4953,2.4938,2.493,2.4906,2.4896,2.4885,2.4819,2.4847,2.484,2.4831,2.4759,2.4747,2.4742,2.4727,2.4703,2.4701,2.47,2.47,2.473,2.4732,0,0,0,0,0,0,2.5034,2.5018,2.4956,2.495,2.4968,2.4906,2.4895,2.4885,2.4819,2.4807,2.4833,2.4827,2.4751,2.4744,2.4738,2.4765,2.4701,2.4699,2.4698,2.4729,2.4731,2.4733,0,0,0,0,0,0,2.5036,2.503,2.4959,2.4982,2.4971,2.4907,2.4896,2.4884,2.4871,2.4808,2.4796,2.4832,2.4749,2.4741,2.4737,2.476,2.4699,2.4697,2.4726,2.4729,2.4732,2.4819,0,0,0,0,0,0,2.5039,2.5031,2.5042,2.4983,2.4971,2.4961,2.4898,2.4884,2.4869,2.4861,2.4805,2.4793,2.4747,2.4741,2.4736,2.4757,2.4696,2.4724,2.4728,2.4731,2.4814,2.4825,2.4834,0,0,0,0,0,2.5043,2.507,2.5043,2.5036,2.4983,2.4962,2.4955,2.4902,2.4871,2.4881,2.484,2.4795,2.4759,2.4741,2.4735,2.4756,2.4722,2.4727,2.4731,2.481,2.4823,2.4834,0,0,0,0,0,0,2.5132,2.5061,2.503,2.504,2.5008,2.4947,2.4957,2.4917,2.4893,2.4886,2.482,2.4808,2.4812,2.4783,2.4764,2.4778,2.4734,2.4737,2.4796,2.4808,2.4818,2.4824,2.4694,0,0,0,0,0,2.5154,2.5144,2.5082,2.5096,2.5081,2.5023,2.5011,2.4973,2.4937,2.4923,2.4881,2.4848,2.4828,2.4817,2.4796,2.481,2.4795,2.4821,2.4831,2.484,2.4843,2.4846,2.4856,2.4747,2.4747,2.4747,0,0,2.5197,2.5156,2.5154,2.5113,2.5083,2.5073,2.5012,2.5004,2.4995,2.4921,2.4915,2.4884,2.4841,2.4846,2.4846,2.4822,2.487,2.4845,2.4852,2.4851,2.4851,2.4861,2.4871,2.475,2.4749,2.4749,0,0,2.527,2.5239,2.5247,2.5219,2.5175,2.5135,2.5138,2.5082,2.5058,2.5051,2.4995,2.4983,2.4952,2.4923,2.4905,2.4966,2.4923,2.4961,2.5013,2.5016,2.5025,2.5032,2.5052,2.506,2.4965,2.4965,2.4965,0,2.5328,2.5312,2.5255,2.5251,2.5233,2.5167,2.5173,2.5148,2.51,2.5089,2.5063,2.5021,2.4988,2.4984,2.4999,2.4987,2.4986,2.4966,2.5029,2.5035,2.5041,2.5059,2.5067,2.497,2.4969,2.4968,2.4968,0,2.5385,2.5375,2.5386,2.5341,2.5325,2.5326,2.5269,2.5259,2.5222,2.5185,2.5177,2.5135,2.5103,2.51,2.5063,2.509,2.5076,2.5041,2.4995,2.5057,2.5073,2.5079,2.4976,2.4975,2.4973,2.4972,0,0,2.5512,2.5436,2.5441,2.5419,2.5365,2.5355,2.5353,2.5322,2.5314,2.5283,2.5278,2.5253,2.5219,2.5198,2.5157,2.5161,2.521,2.5124,2.5122,2.514,2.5234,2.526,2.5269,2.5182,2.5183,2.5184,2.5237,0,2.5574,2.5566,2.5515,2.5521,2.5509,2.5445,2.5442,2.5408,2.5373,2.5357,2.5318,2.53,2.5258,2.5245,2.5246,2.5204,2.5227,2.5199,2.5174,2.5174,2.5185,2.5277,2.5305,2.5358,2.5243,2.5244,2.5244,0,2.5646,2.5619,2.5624,2.5569,2.5563,2.5561,2.5528,2.5514,2.5474,2.5448,2.5425,2.5379,2.5371,2.5329,2.5316,2.5298,2.5285,2.5262,2.5263,2.5257,2.5212,2.5273,2.5373,2.538,2.5254,2.5253,2.5253,0,2.5735,2.5701,2.5699,2.5682,2.5619,2.5619,2.5593,2.5551,2.5535,2.5506,2.5495,2.5465,2.5448,2.5426,2.5373,2.5348,2.5365,2.5319,2.5341,2.5343,2.5346,2.5347,2.5445,2.5341,2.5341,2.5341,2.5341,0,2.5809,2.5814,2.5738,2.5737,2.574,2.568,2.5685,2.5652,2.5615,2.5605,2.5548,2.5539,2.5471,2.5454,2.5413,2.5407,2.54,2.5378,2.5366,2.5382,2.5385,2.5371,2.5365,2.5343,2.5342,2.5342,2.5342,0,2.5909,2.5859,2.5852,2.5793,2.5778,2.5783,2.5731,2.5726,2.5688,2.5676,2.5669,2.5609,2.5586,2.5531,2.5494,2.5466,2.547,2.545,2.5484,2.5476,2.5501,2.5499,2.5592,2.56,2.5494,2.5495,2.5496,0,2.5959,2.5961,2.5902,2.5892,2.5868,2.5852,2.5835,2.5777,2.5762,2.5716,2.5716,2.5689,2.5664,2.563,2.5582,2.5552,2.553,2.5565,2.5526,2.5541,2.5529,2.5528,2.5527,2.5574,2.5575,2.5576,2.5577,0,2.6052,2.6027,2.6006,2.5976,2.5958,2.5932,2.5902,2.5896,2.583,2.5816,2.5792,2.5773,2.5735,2.5707,2.5671,2.5641,2.5598,2.559,2.5593,2.5609,2.5627,2.5615,2.5506,2.5588,2.5587,2.5586,2.5586,2.5585,2.6127,2.6125,2.6083,2.6061,2.6033,2.6006,2.5999,2.5959,2.5939,2.5903,2.587,2.5849,2.5806,2.5753,2.5726,2.5708,2.5686,2.5691,2.5692,2.5694,2.57,2.5632,2.5701,2.5701,2.5701,2.57,2.57,0,2.6215,2.6185,2.6165,2.6126,2.6108,2.607,2.6035,2.6022,2.6005,2.597,2.5946,2.5918,2.5891,2.5841,2.5809,2.5804,2.5783,2.5797,2.5796,2.579,2.5722,2.5722,2.5815,2.5815,2.5815,2.5815,2.5815,2.5815,2.6259,2.6254,2.6223,2.6203,2.6172,2.6152,2.6134,2.6109,2.608,2.6052,2.6029,2.5997,2.5955,2.5919,2.5892,2.5878,2.5868,2.5889,2.5868,2.5806,2.5795,2.5784,2.5783,2.5887,2.5888,2.5936,2.5936,2.5937]}]]